Time,TemperatureF,DewpointF,PressureIn,WindDirection,WindDirectionDegrees,WindSpeedMPH,WindSpeedGustMPH,Humidity,HourlyPrecipIn,Conditions,Clouds,dailyrainin,SoftwareType,DateUTC
2013-02-03 00:03:00,10.0,7.0,29.99,NNW,347,0.0,0.0,86,0.00,,,0.00,,2013-02-03 05:03:00,
2013-02-03 00:12:00,10.0,7.0,29.99,NNW,347,0.0,0.0,86,0.00,,,0.00,,2013-02-03 05:12:00,
2013-02-03 00:22:00,10.0,7.0,29.99,NNW,346,0.0,0.0,86,0.00,,,0.00,,2013-02-03 05:22:00,
2013-02-03 00:32:00,9.0,6.0,29.98,NNW,347,0.0,0.0,86,0.00,,,0.00,,2013-02-03 05:32:00,
2013-02-03 00:42:00,9.0,6.0,29.98,NNW,347,0.0,0.0,86,0.00,,,0.00,,2013-02-03 05:42:00,
2013-02-03 00:52:00,9.0,6.0,29.98,NNW,346,0.0,0.0,86,0.00,,,0.00,,2013-02-03 05:52:00,
2013-02-03 01:02:00,9.0,6.0,29.98,NNW,346,0.0,0.0,86,0.00,,,0.00,,2013-02-03 06:02:00,
2013-02-03 01:11:00,9.0,6.0,29.98,NNW,346,0.0,0.0,86,0.00,,,0.00,,2013-02-03 06:11:00,
2013-02-03 01:21:00,8.0,5.0,29.98,NNW,346,0.0,0.0,86,0.00,,,0.00,,2013-02-03 06:21:00,
2013-02-03 01:32:00,8.0,5.0,29.97,NNW,346,0.0,0.0,86,0.00,,,0.00,,2013-02-03 06:32:00,
2013-02-03 01:42:00,8.0,5.0,29.97,NNW,346,0.0,0.0,86,0.00,,,0.00,,2013-02-03 06:42:00,
2013-02-03 01:52:00,7.0,4.0,29.98,NNW,346,0.0,0.0,86,0.00,,,0.00,,2013-02-03 06:52:00,
2013-02-03 02:01:00,7.0,4.0,29.98,NNW,347,0.0,0.0,86,0.00,,,0.00,,2013-02-03 07:01:00,
2013-02-03 02:11:00,7.0,4.0,29.98,NNW,347,0.0,0.0,86,0.00,,,0.00,,2013-02-03 07:11:00,
2013-02-03 02:21:00,7.0,4.0,29.98,NNW,347,0.0,0.0,86,0.00,,,0.00,,2013-02-03 07:21:00,
2013-02-03 02:31:00,6.0,3.0,29.98,NNW,347,0.0,0.0,87,0.00,,,0.00,,2013-02-03 07:31:00,
2013-02-03 02:42:00,6.0,3.0,29.98,NNW,347,0.0,0.0,87,0.00,,,0.00,,2013-02-03 07:42:00,
2013-02-03 02:52:00,6.0,3.0,29.98,NNW,347,0.0,0.0,86,0.00,,,0.00,,2013-02-03 07:52:00,
2013-02-03 03:01:00,6.0,3.0,29.98,NNW,346,0.0,0.0,86,0.00,,,0.00,,2013-02-03 08:01:00,
2013-02-03 03:11:00,6.0,3.0,29.98,NNW,346,0.0,0.0,86,0.00,,,0.00,,2013-02-03 08:11:00,
2013-02-03 03:22:00,5.0,2.0,29.97,NNW,346,0.0,0.0,86,0.00,,,0.00,,2013-02-03 08:22:00,
2013-02-03 03:32:00,5.0,2.0,29.97,NNW,346,0.0,1.0,86,0.00,,,0.00,,2013-02-03 08:32:00,
2013-02-03 03:41:00,5.0,2.0,29.97,NNW,346,0.0,1.0,86,0.00,,,0.00,,2013-02-03 08:41:00,
2013-02-03 03:52:00,5.0,2.0,29.97,NNW,347,0.0,0.0,86,0.00,,,0.00,,2013-02-03 08:52:00,
2013-02-03 04:03:00,4.0,1.0,29.97,NNW,346,0.0,0.0,86,0.00,,,0.00,,2013-02-03 09:03:00,
2013-02-03 04:11:00,4.0,1.0,29.97,NNW,346,0.0,0.0,86,0.00,,,0.00,,2013-02-03 09:11:00,
2013-02-03 04:21:00,4.0,1.0,29.96,NNW,347,0.0,0.0,86,0.00,,,0.00,,2013-02-03 09:21:00,
2013-02-03 04:32:00,4.0,1.0,29.96,NNW,347,0.0,0.0,86,0.00,,,0.00,,2013-02-03 09:32:00,
2013-02-03 04:42:00,4.0,1.0,29.96,NNW,347,0.0,0.0,86,0.00,,,0.00,,2013-02-03 09:42:00,
2013-02-03 04:52:00,4.0,1.0,29.96,NNW,347,0.0,0.0,86,0.00,,,0.00,,2013-02-03 09:52:00,
2013-02-03 05:01:00,3.0,0.0,29.96,NNW,347,0.0,1.0,86,0.00,,,0.00,,2013-02-03 10:01:00,
2013-02-03 05:11:00,3.0,0.0,29.96,NNW,347,0.0,1.0,86,0.00,,,0.00,,2013-02-03 10:11:00,
2013-02-03 05:21:00,3.0,0.0,29.96,NNW,347,0.0,0.0,86,0.00,,,0.00,,2013-02-03 10:21:00,
2013-02-03 05:32:00,3.0,0.0,29.96,NNW,347,0.0,0.0,86,0.00,,,0.00,,2013-02-03 10:32:00,
2013-02-03 05:42:00,3.0,0.0,29.96,NNW,347,0.0,0.0,86,0.00,,,0.00,,2013-02-03 10:42:00,
2013-02-03 05:53:00,2.0,-1.0,29.96,NNW,347,0.0,0.0,86,0.00,,,0.00,,2013-02-03 10:53:00,
2013-02-03 06:02:00,2.0,-1.0,29.95,NNW,347,0.0,0.0,86,0.00,,,0.00,,2013-02-03 11:02:00,
2013-02-03 06:11:00,2.0,-1.0,29.95,NNW,347,0.0,0.0,86,0.00,,,0.00,,2013-02-03 11:11:00,
2013-02-03 06:22:00,2.0,-1.0,29.96,NNW,347,0.0,0.0,86,0.00,,,0.00,,2013-02-03 11:22:00,
2013-02-03 06:32:00,2.0,-1.0,29.95,NNW,347,0.0,0.0,86,0.00,,,0.00,,2013-02-03 11:32:00,
2013-02-03 06:42:00,2.0,-1.0,29.95,NNW,347,0.0,0.0,86,0.00,,,0.00,,2013-02-03 11:42:00,
2013-02-03 06:52:00,2.0,-1.0,29.96,NNW,346,0.0,0.0,86,0.00,,,0.00,,2013-02-03 11:52:00,
2013-02-03 07:02:00,1.0,-2.0,29.96,NNW,346,0.0,0.0,85,0.00,,,0.00,,2013-02-03 12:02:00,
2013-02-03 07:12:00,1.0,-2.0,29.96,NNW,346,0.0,0.0,85,0.00,,,0.00,,2013-02-03 12:12:00,
2013-02-03 07:22:00,1.0,-2.0,29.96,NNW,347,0.0,0.0,86,0.00,,,0.00,,2013-02-03 12:22:00,
2013-02-03 07:32:00,1.0,-2.0,29.96,NNW,347,0.0,0.0,86,0.00,,,0.00,,2013-02-03 12:32:00,
2013-02-03 07:42:00,1.0,-2.0,29.96,NNW,347,0.0,0.0,86,0.00,,,0.00,,2013-02-03 12:42:00,
2013-02-03 07:53:00,1.0,-2.0,29.96,NNW,346,0.0,0.0,86,0.00,,,0.00,,2013-02-03 12:53:00,
2013-02-03 08:03:00,1.0,-2.0,29.96,NNW,347,0.0,0.0,86,0.00,,,0.00,,2013-02-03 13:03:00,
2013-02-03 08:11:00,1.0,-2.0,29.96,NNW,347,0.0,0.0,86,0.00,,,0.00,,2013-02-03 13:11:00,
2013-02-03 08:22:00,2.0,-1.0,29.96,NNW,346,0.0,0.0,87,0.00,,,0.00,,2013-02-03 13:22:00,
2013-02-03 08:32:00,3.0,0.0,29.96,NNW,346,0.0,0.0,88,0.00,,,0.00,,2013-02-03 13:32:00,
2013-02-03 08:42:00,3.0,0.0,29.96,NNW,346,0.0,0.0,88,0.00,,,0.00,,2013-02-03 13:42:00,
2013-02-03 08:52:00,4.0,1.0,29.95,NNW,346,0.0,0.0,88,0.00,,,0.00,,2013-02-03 13:52:00,
2013-02-03 09:02:00,6.0,3.0,29.95,NNW,347,1.0,2.0,88,0.00,,,0.00,,2013-02-03 14:02:00,
2013-02-03 09:11:00,6.0,3.0,29.95,NNW,347,1.0,2.0,88,0.00,,,0.00,,2013-02-03 14:11:00,
2013-02-03 09:22:00,7.0,4.0,29.94,NNW,346,0.0,2.0,88,0.00,,,0.00,,2013-02-03 14:22:00,
2013-02-03 09:32:00,9.0,6.0,29.94,SSW,199,0.0,5.0,89,0.00,,,0.00,,2013-02-03 14:32:00,
2013-02-03 09:42:00,9.0,6.0,29.94,SSW,199,0.0,5.0,89,0.00,,,0.00,,2013-02-03 14:42:00,
2013-02-03 09:52:00,11.0,8.0,29.94,SSW,200,1.0,2.0,89,0.00,,,0.00,,2013-02-03 14:52:00,
2013-02-03 10:03:00,13.0,10.0,29.93,SSW,200,0.0,2.0,88,0.00,,,0.00,,2013-02-03 15:03:00,
2013-02-03 10:11:00,13.0,10.0,29.93,SSW,200,0.0,2.0,88,0.00,,,0.00,,2013-02-03 15:11:00,
2013-02-03 10:22:00,14.0,11.0,29.93,SSW,199,1.0,2.0,86,0.00,,,0.00,,2013-02-03 15:22:00,
2013-02-03 10:33:00,16.0,12.0,29.93,SSW,199,0.0,4.0,84,0.00,,,0.00,,2013-02-03 15:33:00,
2013-02-03 10:42:00,16.0,12.0,29.93,SSW,199,0.0,4.0,84,0.00,,,0.00,,2013-02-03 15:42:00,
2013-02-03 10:52:00,17.0,12.0,29.92,SW,222,0.0,4.0,81,0.00,,,0.00,,2013-02-03 15:52:00,
2013-02-03 11:03:00,19.0,13.0,29.91,SW,223,2.0,5.0,78,0.00,,,0.00,,2013-02-03 16:03:00,
2013-02-03 11:11:00,19.0,13.0,29.91,SW,223,2.0,5.0,78,0.00,,,0.00,,2013-02-03 16:11:00,
2013-02-03 11:22:00,21.0,14.0,29.91,SW,224,0.0,4.0,75,0.00,,,0.00,,2013-02-03 16:22:00,
2013-02-03 11:33:00,24.0,15.0,29.89,SW,224,0.0,2.0,69,0.00,,,0.00,,2013-02-03 16:33:00,
2013-02-03 11:42:00,24.0,15.0,29.89,SW,224,0.0,2.0,69,0.00,,,0.00,,2013-02-03 16:42:00,
2013-02-03 11:52:00,26.0,16.0,29.88,SW,229,3.0,5.0,64,0.00,,,0.00,,2013-02-03 16:52:00,
2013-02-03 12:02:00,26.0,15.0,29.87,WSW,255,1.0,4.0,62,0.00,,,0.00,,2013-02-03 17:02:00,
2013-02-03 12:22:00,26.0,14.0,29.86,West,263,0.0,6.0,60,0.00,,,0.00,,2013-02-03 17:22:00,
2013-02-03 12:32:00,26.0,14.0,29.85,WNW,302,0.0,5.0,59,0.00,,,0.00,,2013-02-03 17:32:00,
2013-02-03 12:42:00,26.0,14.0,29.85,WNW,302,0.0,5.0,59,0.00,,,0.00,,2013-02-03 17:42:00,
2013-02-03 12:52:00,26.0,13.0,29.84,SW,223,0.0,7.0,57,0.00,,,0.00,,2013-02-03 17:52:00,
2013-02-03 13:03:00,26.0,13.0,29.83,SSW,211,1.0,3.0,58,0.00,,,0.00,,2013-02-03 18:03:00,
2013-02-03 13:12:00,26.0,13.0,29.83,SSW,211,1.0,3.0,58,0.00,,,0.00,,2013-02-03 18:12:00,
2013-02-03 13:23:00,27.0,13.0,29.82,West,259,3.0,6.0,55,0.00,,,0.00,,2013-02-03 18:23:00,
2013-02-03 13:33:00,27.0,12.0,29.81,WSW,249,3.0,7.0,52,0.00,,,0.00,,2013-02-03 18:33:00,
2013-02-03 13:42:00,27.0,12.0,29.81,WSW,249,3.0,7.0,52,0.00,,,0.00,,2013-02-03 18:42:00,
2013-02-03 13:52:00,28.0,13.0,29.80,WSW,252,5.0,6.0,52,0.00,,,0.00,,2013-02-03 18:52:00,
2013-02-03 14:02:00,28.0,12.0,29.79,West,273,2.0,6.0,51,0.00,,,0.00,,2013-02-03 19:02:00,
2013-02-03 14:11:00,28.0,12.0,29.79,West,273,2.0,6.0,51,0.00,,,0.00,,2013-02-03 19:11:00,
2013-02-03 14:22:00,28.0,11.0,29.79,SSE,149,2.0,5.0,48,0.00,,,0.00,,2013-02-03 19:22:00,
2013-02-03 14:32:00,28.0,10.0,29.78,WNW,284,0.0,5.0,47,0.00,,,0.00,,2013-02-03 19:32:00,
2013-02-03 14:42:00,28.0,10.0,29.78,WNW,284,0.0,5.0,47,0.00,,,0.00,,2013-02-03 19:42:00,
2013-02-03 14:52:00,29.0,10.0,29.78,NNE,13,3.0,6.0,45,0.00,,,0.00,,2013-02-03 19:52:00,
2013-02-03 15:01:00,28.0,10.0,29.78,SSW,192,5.0,8.0,46,0.00,,,0.00,,2013-02-03 20:01:00,
2013-02-03 15:12:00,28.0,10.0,29.78,SSW,192,5.0,8.0,46,0.00,,,0.00,,2013-02-03 20:12:00,
2013-02-03 15:22:00,27.0,9.0,29.78,South,174,3.0,8.0,47,0.00,,,0.00,,2013-02-03 20:22:00,
2013-02-03 15:33:00,26.0,8.0,29.77,SSE,159,2.0,7.0,46,0.00,,,0.00,,2013-02-03 20:33:00,
2013-02-03 15:42:00,26.0,8.0,29.77,SSE,159,2.0,7.0,46,0.00,,,0.00,,2013-02-03 20:42:00,
2013-02-03 15:52:00,26.0,9.0,29.77,SSE,160,1.0,7.0,47,0.00,,,0.00,,2013-02-03 20:52:00,
2013-02-03 16:03:00,27.0,10.0,29.76,North,355,0.0,3.0,48,0.00,,,0.00,,2013-02-03 21:03:00,
2013-02-03 16:11:00,27.0,10.0,29.76,North,355,0.0,3.0,48,0.00,,,0.00,,2013-02-03 21:11:00,
2013-02-03 16:21:00,26.0,9.0,29.75,South,176,3.0,6.0,49,0.00,,,0.00,,2013-02-03 21:21:00,
2013-02-03 16:32:00,26.0,10.0,29.75,SW,218,1.0,6.0,50,0.00,,,0.00,,2013-02-03 21:32:00,
2013-02-03 16:42:00,26.0,10.0,29.75,SW,218,1.0,6.0,50,0.00,,,0.00,,2013-02-03 21:42:00,
2013-02-03 16:52:00,25.0,9.0,29.75,SW,218,0.0,2.0,50,0.00,,,0.00,,2013-02-03 21:52:00,
2013-02-03 17:01:00,25.0,10.0,29.75,SW,218,0.0,1.0,52,0.00,,,0.00,,2013-02-03 22:01:00,
2013-02-03 17:11:00,25.0,10.0,29.75,SW,218,0.0,1.0,52,0.00,,,0.00,,2013-02-03 22:11:00,
2013-02-03 17:21:00,24.0,11.0,29.75,SW,218,0.0,1.0,56,0.00,,,0.00,,2013-02-03 22:21:00,
2013-02-03 17:32:00,23.0,11.0,29.74,SW,218,0.0,0.0,60,0.00,,,0.00,,2013-02-03 22:32:00,
2013-02-03 17:42:00,23.0,11.0,29.74,SW,218,0.0,0.0,60,0.00,,,0.00,,2013-02-03 22:42:00,
2013-02-03 17:52:00,22.0,11.0,29.75,SW,218,0.0,0.0,63,0.00,,,0.00,,2013-02-03 22:52:00,
2013-02-03 18:01:00,20.0,11.0,29.75,SW,218,0.0,0.0,66,0.00,,,0.00,,2013-02-03 23:01:00,
2013-02-03 18:12:00,20.0,11.0,29.75,SW,218,0.0,0.0,66,0.00,,,0.00,,2013-02-03 23:12:00,
2013-02-03 18:22:00,19.0,10.0,29.75,SW,218,0.0,0.0,68,0.00,,,0.00,,2013-02-03 23:22:00,
2013-02-03 18:32:00,18.0,10.0,29.75,SW,218,0.0,0.0,70,0.00,,,0.00,,2013-02-03 23:32:00,
2013-02-03 18:42:00,18.0,10.0,29.75,SW,218,0.0,0.0,70,0.00,,,0.00,,2013-02-03 23:42:00,
2013-02-03 18:52:00,18.0,10.0,29.74,SW,218,0.0,0.0,71,0.00,,,0.00,,2013-02-03 23:52:00,
2013-02-03 19:02:00,17.0,10.0,29.74,SW,218,0.0,0.0,73,0.00,,,0.00,,2013-02-04 00:02:00,
2013-02-03 19:11:00,17.0,10.0,29.74,SW,218,0.0,0.0,73,0.00,,,0.00,,2013-02-04 00:11:00,
2013-02-03 19:22:00,16.0,9.0,29.74,SW,218,0.0,0.0,75,0.00,,,0.00,,2013-02-04 00:22:00,
2013-02-03 19:32:00,15.0,9.0,29.73,SW,218,0.0,0.0,76,0.00,,,0.00,,2013-02-04 00:32:00,
2013-02-03 19:42:00,15.0,9.0,29.73,SW,218,0.0,0.0,76,0.00,,,0.00,,2013-02-04 00:42:00,
2013-02-03 19:52:00,14.0,8.0,29.73,SW,218,0.0,0.0,77,0.00,,,0.00,,2013-02-04 00:52:00,
2013-02-03 20:01:00,14.0,9.0,29.73,SW,218,0.0,0.0,79,0.00,,,0.00,,2013-02-04 01:01:00,
2013-02-03 20:11:00,14.0,9.0,29.73,SW,218,0.0,0.0,79,0.00,,,0.00,,2013-02-04 01:11:00,
2013-02-03 20:21:00,14.0,9.0,29.73,SW,218,0.0,0.0,80,0.00,,,0.00,,2013-02-04 01:21:00,
2013-02-03 20:32:00,14.0,10.0,29.73,SW,218,0.0,0.0,82,0.00,,,0.00,,2013-02-04 01:32:00,
2013-02-03 20:42:00,14.0,10.0,29.73,SW,218,0.0,0.0,82,0.00,,,0.00,,2013-02-04 01:42:00,
2013-02-03 20:52:00,14.0,10.0,29.73,SW,218,0.0,0.0,82,0.00,,,0.00,,2013-02-04 01:52:00,
2013-02-03 21:02:00,14.0,10.0,29.74,SW,218,0.0,0.0,82,0.00,,,0.00,,2013-02-04 02:02:00,
2013-02-03 21:11:00,14.0,10.0,29.74,SW,218,0.0,0.0,82,0.00,,,0.00,,2013-02-04 02:11:00,
2013-02-03 21:21:00,14.0,10.0,29.74,SW,218,0.0,0.0,83,0.00,,,0.00,,2013-02-04 02:21:00,
2013-02-03 21:32:00,14.0,10.0,29.73,SW,218,0.0,0.0,83,0.00,,,0.00,,2013-02-04 02:32:00,
2013-02-03 21:42:00,14.0,10.0,29.73,SW,218,0.0,0.0,83,0.00,,,0.00,,2013-02-04 02:42:00,
2013-02-03 21:52:00,14.0,10.0,29.73,SW,218,0.0,1.0,83,0.00,,,0.00,,2013-02-04 02:52:00,
2013-02-03 22:02:00,15.0,11.0,29.72,SW,218,0.0,0.0,83,0.00,,,0.00,,2013-02-04 03:02:00,
2013-02-03 22:11:00,15.0,11.0,29.72,SW,218,0.0,0.0,83,0.00,,,0.00,,2013-02-04 03:11:00,
2013-02-03 22:21:00,15.0,11.0,29.72,SW,218,0.0,0.0,83,0.00,,,0.00,,2013-02-04 03:21:00,
2013-02-03 22:32:00,15.0,11.0,29.71,SW,218,0.0,0.0,83,0.00,,,0.00,,2013-02-04 03:32:00,
2013-02-03 22:42:00,15.0,11.0,29.71,SW,218,0.0,0.0,83,0.00,,,0.00,,2013-02-04 03:42:00,
2013-02-03 22:52:00,15.0,11.0,29.71,SW,218,0.0,0.0,83,0.00,,,0.00,,2013-02-04 03:52:00,
2013-02-03 23:01:00,15.0,11.0,29.70,SW,218,0.0,0.0,83,0.00,,,0.00,,2013-02-04 04:01:00,
2013-02-03 23:11:00,15.0,11.0,29.70,SW,218,0.0,0.0,83,0.00,,,0.00,,2013-02-04 04:11:00,
2013-02-03 23:21:00,15.0,11.0,29.70,SW,218,0.0,0.0,83,0.00,,,0.00,,2013-02-04 04:21:00,
2013-02-03 23:32:00,15.0,11.0,29.70,SW,218,0.0,0.0,84,0.00,,,0.00,,2013-02-04 04:32:00,
2013-02-03 23:42:00,15.0,11.0,29.70,SW,218,0.0,0.0,84,0.00,,,0.00,,2013-02-04 04:42:00,
2013-02-03 23:52:00,15.0,11.0,29.70,SW,218,0.0,0.0,84,0.00,,,0.00,,2013-02-04 04:52:00,